カタログに戻る

FENGYUN 1C DEB

LostPO
NORAD 46445·DEBRIS·🇨🇳 China

打ち上げ May 10, 1999 から Taiyuan Satellite Launch Center

Loading…

次のパス (今後24時間)

TLE

古いSource: Space-Track

元期: Apr 8, 2024, 14:35 UTC

1 46445U 99025EZA 24099.60796937  .00004808  00000-0  28525-2 0  9993
2 46445  98.0172  37.3827 0109085 155.7294 204.9070 14.04987918714801

AllMySatでFENGYUN 1C DEBをリアルタイム追跡

Download on the App Store